FENGYUN 1C DEB

Satellite information

Favourite Embed

Satellite Type and Status

DEBRISIN ORBIT

Key statistics

Satellite FENGYUN 1C DEB at a glance.

Uptime

9664

Days in orbit

Revolutions

≈ 14.4

Per day

Orbit

SSO

Sun Synchronous Orbit

Inclination

98.8

Latest

Satellite identification and parameters

Extended collection of information and parameters for FENGYUN 1C DEB.

Object identification

Identified? True

Debris? True

Object name: FENGYUN 1C DEB

International designator: 1999-025BYZ

Object number (NORAD): 31558

Object ID (CCSDS): 31558

Country: PEOPLES REPUBLIC OF CHINA (PRC)

Current information (Y/N): Y

RCS size: SMALL

Orbital parameters

Period: 100.104 minutes

Inclination: 98.7914 deg

SMA: 7141.596 km

Apoapsis: 915.832 km

Periapsis: 611.089 km

RAAN: 190.7939 deg

Eccentricy: 0.0213358

Argument of periapsis: 50.8635 deg

Mean anomaly: 340.6607 deg

Mean motion: 14.38500029 rev/day

Mean motion (dot): 0.00001559 rev/day2

B* drag term: 0.00040484 1/REarth

Two-line elements (TLE)

Creation date: Oct. 23, 2025, 10:26 p.m.

Reference frame: TEME

Reference center: EARTH

Epoch: Oct. 23, 2025, 3:51 p.m. UTC

TLE line 0: 0 FENGYUN 1C DEB

TLE line 1: 1 31558U 99025BYZ 25296.66089256 .00001559 00000-0 40484-3 0 9996

TLE line 2: 2 31558 98.7914 190.7939 0213358 50.8635 340.6607 14.38500029967155

Live tracking on map

Real-time ground track for satellite FENGYUN 1C DEB.

In-orbit conjunctions

A list of the most updated potential collisions computed for object FENGYUN 1C DEB.

Target Orbit TCA Probability of collision Miss distance Type
FENGYUN 1C DEB SSO 2025-07-09 14:03:20 0.000195993 441.0 (m) DEBRIS
THOR ABLESTAR DEB LEO 2025-04-15 06:57:10 0.0001021575 182.0 (m) DEBRIS
CZ-6A DEB LEO 2025-01-20 02:11:36 0.001295317 65.0 (m) DEBRIS
SL-8 DEB LEO 2024-11-11 00:51:26 0.0009132605 324.0 (m) DEBRIS

Associated space launch

Chinese polar orbiting meteorological satellite

FENGYUN 1C DEB was lifted into orbit during the mission ‘Long March 4B | Feng Yun 1C’, on board a Long March 4B space rocket.

The launch took place on May 10, 1999, 1:33 a.m. from Launch Complex 7.

For more information about the launch, click the button.

Launch to space Long March 4B | Feng Yun 1C
Long March 4B | Feng Yun 1C

Agency: N/A

Status: Launch Successful

Launch date: May 10, 1999, 1:33 a.m. UTC

Rocket: Long March 4B

Launch pad: Launch Complex 7

Location: Taiyuan Satellite Launch Center, People's Republic of China

...

Latest news about this satellite

There are no fresh news available about this satellite. Check back as we update our databases every day.


Newsletter sign-up

Weekly statistics, charts and insights to help you stay on top of the space industry.